sat.trackr.live / text

‹ back to catalog

ONEWEB-0389

NORAD 50469 · 2021-132A

PAYLOAD ACTIVE UNKNOWN

§ Identity

Operator
Country
UK
Launch date
2021-12-27
Launch site
TYMSC
Launch vehicle
Mass (kg)
RCS (m²)

Purposes: comms

External: N2YO · Heavens-Above · Gunter

§ Orbital elements

Epoch: 2026-09-19T23:12:34.680384Z

Period
109.29 min
Inclination
87.9197°
Eccentricity
0.0002164
Mean motion
13.17650586 rev/d
Perigee alt
1,192.1 km
Apogee alt
1,195.3 km
Semi-major
7,571.8 km
B*
-2.3167e-4
RAAN
347.0476°
Arg perigee
101.0417°
Mean anomaly
259.0958°
Rev number
23,056

§ Raw data

ONEWEB-03891 50469U 21132A   26262.96706806 -.00000077  00000+0 -23167-3 0  99902 50469  87.9197 347.0476 0002164 101.0417 259.0958 13.17650586230561

JSON: /api/v1/satellites/50469 · /tle

For live sub-satellite position, see the globe view (requires WebGL).

§ Visibility from observer

Set your observer location to see the next 7 days of passes ≥ 10°. The values pass through the URL so the page stays shareable.

No JS? Fill the form by hand. The geolocation button needs JavaScript.